[[{"header":{"parameterUnit":"m.s-1","parameterCategory":1,"la1":30.2991,"la2":30.254,"lo1":-89.0895,"lo2":-89.0444,"dy":0.0017,"dx":0.0017,"nx":28,"ny":28,"refTime":"2025-04-04T03:00:00:Z","depth":0,"parameterNumber":2,"parameterNumberName":"U-component_of_WINDS"},"data":[0,0,0,0,0,0,0,0,0,0,0,0,0,0,0,0,0,0,0,0,0,0,0,0,0,0,0,0,0,0,0,0,0,0,0,0,0,0,0,0,0,0,0,0,0,0,0,0,0,0,0,0,0,0,0,0,0,0,-5.1119,-5.1121,0,-5.1219,-5.122,-5.1221,-5.1214,-5.1212,-5.1211,-5.1209,-5.1311,-5.1315,-5.1319,0,0,0,0,0,0,0,0,0,0,0,0,0,-5.0924,-5.0927,-5.1119,-5.1121,-5.1122,-5.1219,-5.122,-5.1221,-5.1214,-5.1212,-5.121,-5.1208,-5.1309,-5.1314,-5.1319,0,0,0,0,0,0,0,0,0,0,0,0,0,-5.1014,-5.0928,-5.1119,-5.113,-5.1132,-5.1218,-5.122,-5.1222,-5.1214,-5.1212,-5.121,-5.1208,-5.1308,-5.1314,-5.132,-5.1402,0,0,-5.1338,-5.1341,0,0,0,0,0,0,0,0,-5.1009,-5.1022,-5.1127,-5.1129,-5.1132,-5.1202,-5.1188,-5.1282,-5.1215,-5.1183,-5.1209,-5.1207,-5.1276,-5.1285,-5.1308,-5.1407,-5.1411,-5.1339,-5.1343,-5.1345,-5.1347,0,0,0,0,0,0,0,-5.1003,-5.1017,-5.1159,-5.1128,-5.1131,-5.113,-5.114,-5.1206,-5.1241,-5.1185,-5.1185,-5.1197,-5.1277,-5.1302,-5.1311,-5.1413,-5.1339,-5.1344,-5.1348,-5.135,-5.1584,-5.1587,0,0,0,0,0,0,-5.0994,-5.1012,-5.1156,-5.1162,-5.1064,-5.1135,-5.1147,-5.1181,-5.124,-5.1247,-5.1199,-5.1196,-5.1293,-5.1303,-5.1314,-5.1414,-5.1345,-5.1351,-5.1355,-5.1582,-5.1585,-5.1588,0,0,0,0,0,0,-5.099,-5.1007,-5.1151,-5.1087,-5.1105,-5.1141,-5.118,-5.1184,-5.121,-5.125,-5.1256,-5.1218,-5.1292,-5.1305,-5.138,-5.1417,-5.1354,-5.1359,-5.1579,-5.1583,-5.1586,-5.1614,0,0,0,0,0,0,-5.0984,-5.1006,-5.1037,-5.1088,-5.1109,-5.1216,-5.1182,-5.1188,-5.122,-5.1218,-5.127,-5.1276,-5.1291,-5.1371,-5.1386,-5.1424,-5.1364,-5.1576,-5.158,-5.1585,-5.1609,-5.1618,-5.1625,0,0,0,0,0,-5.0978,-5.1041,-5.1039,-5.1056,-5.1149,-5.1218,-5.123,-5.1245,-5.1223,-5.1255,-5.1281,-5.1275,-5.1411,-5.1379,-5.1396,-5.1436,-5.1573,-5.1579,-5.1585,-5.1606,-5.1616,-5.1625,0,0,0,0,0,0,-5.0993,-5.1047,-5.1046,-5.1127,-5.1168,-5.1216,-5.1257,-5.1256,-5.1303,-5.1299,-5.1316,-5.1328,-5.1403,-5.1428,-5.1391,-5.1519,-5.1489,-5.1499,-5.15,-5.151,-5.1517,-5.1509,-5.1369,0,0,0,0,0,-5.1006,-5.1058,-5.1103,-5.117,-5.1191,-5.1221,-5.1251,-5.126,-5.1303,-5.132,-5.1352,-5.1394,-5.1446,-5.148,-5.153,-5.1614,-5.1625,-5.1651,-5.1658,-5.1665,-5.1671,-5.1717,-5.1729,-5.1606,-5.1606,-5.1606,0,0,-5.1033,-5.1069,-5.1101,-5.1174,-5.1207,-5.126,-5.1235,-5.1292,-5.1332,-5.1329,-5.14,-5.1426,-5.1474,-5.1554,-5.159,-5.1576,-5.1708,-5.1672,-5.1676,-5.168,-5.1724,-5.1736,-5.1746,-5.161,-5.1609,-5.1609,0,0,-5.1109,-5.1142,-5.1201,-5.1235,-5.1285,-5.1305,-5.1319,-5.1368,-5.1385,-5.1458,-5.1457,-5.1505,-5.1594,-5.1628,-5.1658,-5.1749,-5.1744,-5.1765,-5.1804,-5.1849,-5.1858,-5.1867,-5.1898,-5.1909,-5.1773,-5.1773,-5.1773,0,-5.1135,-5.1215,-5.1232,-5.129,-5.1322,-5.1323,-5.1383,-5.1415,-5.1479,-5.1501,-5.1485,-5.1599,-5.1631,-5.1718,-5.1741,-5.1765,-5.1781,-5.1757,-5.1856,-5.1864,-5.1873,-5.1902,-5.1914,-5.1775,-5.1774,-5.1774,-5.1774,0,-5.1245,-5.1301,-5.1343,-5.1404,-5.1442,-5.1501,-5.1527,-5.1563,-5.1569,-5.1591,-5.1665,-5.1705,-5.1763,-5.1785,-5.1792,-5.1874,-5.1864,-5.1852,-5.1821,-5.1886,-5.1914,-5.1926,-5.1778,-5.1777,-5.1776,-5.1776,0,0,-5.133,-5.1402,-5.1417,-5.1445,-5.1501,-5.1544,-5.1604,-5.1661,-5.1691,-5.1736,-5.1786,-5.1863,-5.1853,-5.1886,-5.1897,-5.1936,-5.2004,-5.1919,-5.1921,-5.1932,-5.2096,-5.2102,-5.2115,-5.2003,-5.2005,-5.2007,-5.2091,0,-5.141,-5.1514,-5.1532,-5.1623,-5.1675,-5.1678,-5.1729,-5.177,-5.1792,-5.1839,-5.1864,-5.1918,-5.1901,-5.1921,-5.196,-5.1987,-5.2037,-5.1982,-5.2048,-5.205,-5.2033,-5.213,-5.2137,-5.2214,-5.2102,-5.2104,-5.2106,0,-5.1516,-5.1564,-5.166,-5.171,-5.1732,-5.1778,-5.1832,-5.1877,-5.1923,-5.1937,-5.1975,-5.1982,-5.2044,-5.2013,-5.2098,-5.2061,-5.209,-5.2108,-5.2111,-5.2115,-5.2079,-5.2135,-5.2239,-5.225,-5.2123,-5.2122,-5.2121,0,-5.1566,-5.1655,-5.1723,-5.1748,-5.1808,-5.184,-5.1867,-5.1911,-5.1944,-5.1992,-5.2014,-5.2069,-5.2098,-5.2141,-5.2162,-5.2138,-5.2246,-5.2217,-5.2258,-5.2257,-5.2277,-5.2275,-5.2385,-5.2301,-5.2301,-5.23,-5.23,0,-5.1652,-5.171,-5.1747,-5.1789,-5.1854,-5.1875,-5.194,-5.1966,-5.2006,-5.2053,-5.206,-5.2104,-5.2131,-5.218,-5.2198,-5.2265,-5.2279,-5.2291,-5.2294,-5.2289,-5.2287,-5.2305,-5.23,-5.2303,-5.2303,-5.2302,-5.2302,0,-5.1717,-5.1744,-5.1819,-5.187,-5.1885,-5.1931,-5.1975,-5.2016,-5.2039,-5.2099,-5.2115,-5.2151,-5.2209,-5.2235,-5.2307,-5.2318,-5.2394,-5.2396,-5.2378,-5.2379,-5.2417,-5.2412,-5.2541,-5.2558,-5.2464,-5.2465,-5.2466,0,-5.1768,-5.1813,-5.187,-5.1902,-5.1929,-5.1981,-5.2015,-5.2039,-5.2074,-5.2131,-5.2165,-5.2223,-5.227,-5.2362,-5.2395,-5.245,-5.2451,-5.2493,-5.2459,-5.2452,-5.2449,-5.2445,-5.2449,-5.2497,-5.2498,-5.2499,-5.25,0,-5.1856,-5.1868,-5.1916,-5.1971,-5.2011,-5.2055,-5.2098,-5.2124,-5.2155,-5.2194,-5.2253,-5.229,-5.2363,-5.242,-5.2477,-5.2505,-5.2507,-5.2511,-5.2522,-5.2515,-5.2503,-5.2508,-5.2392,-5.2507,-5.2506,-5.2505,-5.2505,-5.2505,-5.1915,-5.1954,-5.2,-5.2055,-5.209,-5.213,-5.2171,-5.22,-5.2249,-5.231,-5.2322,-5.2384,-5.243,-5.2507,-5.2537,-5.2587,-5.2577,-5.2595,-5.2599,-5.2602,-5.2603,-5.2497,-5.2598,-5.2597,-5.2597,-5.2597,-5.2597,0,-5.2001,-5.2031,-5.2081,-5.2141,-5.2184,-5.2183,-5.2231,-5.2267,-5.2322,-5.2365,-5.2411,-5.2479,-5.2535,-5.2573,-5.263,-5.2662,-5.2665,-5.2676,-5.2673,-5.2679,-5.2609,-5.2592,-5.2673,-5.2673,-5.2673,-5.2673,-5.2673,-5.2673,-5.205,-5.2117,-5.2135,-5.2219,-5.2249,-5.231,-5.2337,-5.2375,-5.2409,-5.2484,-5.253,-5.2555,-5.2597,-5.2657,-5.2708,-5.2718,-5.2737,-5.2749,-5.2758,-5.2692,-5.2684,-5.2676,-5.266,-5.2754,-5.2754,-5.2823,-5.2824,-5.2824]},{"header":{"parameterUnit":"m.s-1","parameterCategory":1,"la1":30.2991,"la2":30.254,"lo1":-89.0895,"lo2":-89.0444,"dy":0.0017,"dx":0.0017,"nx":28,"ny":28,"refTime":"2025-04-04T03:00:00:Z","depth":0,"parameterNumber":3,"parameterNumberName":"V-component_of_WINDS"},"data":[0,0,0,0,0,0,0,0,0,0,0,0,0,0,0,0,0,0,0,0,0,0,0,0,0,0,0,0,0,0,0,0,0,0,0,0,0,0,0,0,0,0,0,0,0,0,0,0,0,0,0,0,0,0,0,0,0,0,3.8919,3.892,0,3.9052,3.9053,3.9055,3.9071,3.9069,3.9068,3.9067,3.9201,3.9206,3.9211,0,0,0,0,0,0,0,0,0,0,0,0,0,3.8677,3.8682,3.8918,3.892,3.8922,3.9052,3.9054,3.9055,3.9071,3.9069,3.9068,3.9066,3.92,3.9205,3.9211,0,0,0,0,0,0,0,0,0,0,0,0,0,3.8793,3.8683,3.8918,3.8945,3.8949,3.9051,3.9054,3.9056,3.9071,3.9069,3.9067,3.9065,3.9198,3.9205,3.9212,3.9296,0,0,3.9234,3.9237,0,0,0,0,0,0,0,0,3.8787,3.8802,3.894,3.8944,3.8948,3.9043,3.9018,3.9136,3.9072,3.9025,3.9067,3.9064,3.915,3.9161,3.919,3.9302,3.9308,3.9235,3.9239,3.9242,3.9244,0,0,0,0,0,0,0,3.8779,3.8797,3.8971,3.8942,3.8947,3.8951,3.8965,3.904,3.9097,3.9029,3.903,3.9046,3.9152,3.9183,3.9194,3.931,3.9234,3.9241,3.9245,3.9248,3.9501,3.9503,0,0,0,0,0,0,3.8766,3.879,3.8967,3.8975,3.8861,3.8957,3.8973,3.9014,3.9096,3.9107,3.9047,3.9046,3.9172,3.9185,3.9198,3.9305,3.9242,3.9249,3.9253,3.9499,3.9501,3.9504,0,0,0,0,0,0,3.8761,3.8782,3.8962,3.8883,3.8906,3.8963,3.9009,3.9018,3.9049,3.911,3.912,3.9069,3.9171,3.9188,3.9273,3.9309,3.9252,3.9259,3.9496,3.9499,3.9503,3.9516,0,0,0,0,0,0,3.8754,3.878,3.8812,3.8884,3.891,3.9034,3.9012,3.9022,3.9062,3.9062,3.9133,3.9143,3.9171,3.9262,3.928,3.9318,3.9264,3.9493,3.9497,3.9502,3.9513,3.952,3.9526,0,0,0,0,0,3.8745,3.8809,3.8813,3.8835,3.8952,3.9036,3.9051,3.9082,3.9065,3.9098,3.9138,3.9141,3.9302,3.927,3.9291,3.9332,3.949,3.9496,3.9501,3.951,3.9518,3.9526,0,0,0,0,0,0,3.8739,3.8819,3.8825,3.8914,3.8968,3.9038,3.9081,3.9089,3.9149,3.9146,3.9181,3.9197,3.9281,3.9314,3.9277,3.9419,3.9395,3.9404,3.9394,3.9403,3.9409,3.94,3.927,0,0,0,0,0,3.8748,3.8809,3.8876,3.8948,3.8975,3.9024,3.9061,3.908,3.9138,3.916,3.9206,3.9261,3.9324,3.9365,3.9426,3.9517,3.9535,3.9556,3.9563,3.9568,3.9576,3.963,3.9641,3.9522,3.9522,3.9522,0,0,3.8767,3.8819,3.8855,3.8948,3.8993,3.9056,3.9043,3.9109,3.9157,3.917,3.9254,3.9289,3.9353,3.9442,3.9483,3.9472,3.9613,3.9575,3.9578,3.9584,3.9636,3.9648,3.9658,3.9525,3.9525,3.9524,0,0,3.8835,3.8879,3.8946,3.8992,3.9059,3.9091,3.9107,3.9177,3.9202,3.9286,3.9298,3.9355,3.9463,3.9509,3.9546,3.9635,3.9641,3.9654,3.9688,3.974,3.975,3.9758,3.9792,3.9804,3.9661,3.9662,3.9662,0,3.8851,3.8947,3.8979,3.9047,3.9089,3.9105,3.9174,3.9216,3.93,3.9328,3.9315,3.9453,3.9497,3.9598,3.962,3.9649,3.967,3.9646,3.9746,3.9755,3.9763,3.9796,3.9809,3.9663,3.9663,3.9663,3.9662,0,3.8964,3.9031,3.9077,3.916,3.9206,3.9273,3.9317,3.936,3.9376,3.9409,3.9496,3.955,3.9624,3.9649,3.9664,3.9754,3.9745,3.9738,3.9715,3.9775,3.9807,3.982,3.9665,3.9664,3.9664,3.9664,0,0,3.9032,3.9133,3.915,3.9189,3.9266,3.9318,3.9387,3.9461,3.9499,3.9556,3.9616,3.9708,3.9704,3.9746,3.9767,3.9812,3.9882,3.98,3.9802,3.9816,3.9987,3.9993,4.0007,3.9886,3.9889,3.989,3.9982,0,3.9111,3.9235,3.9268,3.9374,3.9437,3.9454,3.9515,3.9569,3.9603,3.9661,3.9698,3.9764,3.9751,3.9778,3.9823,3.9864,3.9917,3.9857,3.9944,3.9946,3.9929,4.0023,4.003,4.0114,3.9995,3.9997,3.9998,0,3.922,3.9282,3.9395,3.9467,3.9494,3.9548,3.962,3.9675,3.9738,3.9759,3.9808,3.9825,3.9899,3.987,3.9973,3.9932,3.9969,3.9995,3.9999,4.0009,3.9977,4.0039,4.0141,4.0155,4.0018,4.0016,4.0015,0,3.9261,3.9373,3.9456,3.9488,3.9573,3.9611,3.9648,3.9708,3.9752,3.9814,3.9843,3.9912,3.995,4.0004,4.004,4.0016,4.0141,4.0115,4.0162,4.0161,4.0189,4.0187,4.0301,4.0209,4.0209,4.0209,4.0208,0,3.9348,3.9417,3.9476,3.9527,3.9606,3.9642,3.9719,3.9756,3.981,3.987,3.9888,3.9943,3.9986,4.0047,4.0075,4.0158,4.0174,4.0195,4.0202,4.0195,4.0192,4.0221,4.0217,4.0212,4.0211,4.0211,4.021,0,3.9408,3.945,3.9542,3.9616,3.9636,3.9691,3.9754,3.9805,3.9839,3.9914,3.9934,3.9988,4.0062,4.0103,4.0194,4.0213,4.0306,4.0309,4.0286,4.0289,4.0335,4.0331,4.0473,4.0495,4.0386,4.0387,4.0388,0,3.9461,3.9515,3.9595,3.9637,3.9675,3.9741,3.9786,3.9824,3.987,3.9947,3.9989,4.0064,4.0126,4.0242,4.029,4.0361,4.0367,4.0412,4.0378,4.037,4.0371,4.0368,4.0375,4.0418,4.0419,4.042,4.0421,0,3.9553,3.9572,3.9636,3.9709,3.9762,3.9821,3.9878,3.9911,3.9959,4.001,4.0086,4.0135,4.023,4.0304,4.0379,4.0418,4.0428,4.0431,4.0446,4.0441,4.0426,4.0437,4.0305,4.0428,4.0427,4.0427,4.0426,4.0426,3.9613,3.9663,3.9728,3.98,3.9848,3.9903,3.9955,3.9997,4.0061,4.0143,4.0161,4.0242,4.0305,4.0407,4.0447,4.0511,4.0503,4.0524,4.053,4.0535,4.0539,4.0414,4.0525,4.0525,4.0524,4.0524,4.0524,0,3.9708,3.9751,3.9817,3.9899,3.9956,3.9961,4.0026,4.0073,4.0145,4.0203,4.0264,4.0353,4.0426,4.048,4.0555,4.0596,4.0603,4.0615,4.0613,4.0623,4.054,4.0521,4.0608,4.0608,4.0608,4.0608,4.0608,4.0608,3.9764,3.985,3.9877,3.9988,4.003,4.0111,4.0148,4.0199,4.0246,4.0344,4.0406,4.0441,4.0498,4.0578,4.0646,4.066,4.0687,4.0699,4.0714,4.0637,4.0628,4.0619,4.0602,4.0704,4.0704,4.0791,4.0792,4.0793]}]]